User: anonymous
Location: Monroe
(41.9160°N, 83.3980°W)
Time: 19:40:34
(UTC-04:00)
Language:

deb Explorer IX - Orbit

View from above orbital plane
View from above orbital plane
View from above satellite
View from above satellite

Ground track
Ground track

The orbit data is extracted from the following two-line orbital elements,

1 00085U 61004C   14212.75606179  .00005242  00000-0  13533-2 0    86
2 00085 038.7685 098.2240 0457652 331.8065 025.9010 14.01411124626530
Epoch (UTC): 31 July 2014 18:08:43
Eccentricity: 0.0457652
inclination: 38.7685°
perigee height: 556 km
apogee height: 1221 km
right ascension of ascending node: 98.2240°
argument of perigee: 331.8065°
revolutions per day: 14.01411124
mean anomaly at epoch: 25.9010°
orbit number at epoch: 62653

The dashed part of the orbit path shows where the satellite is in the earth's shadow,  

DLR